Terminal Aerodrome Forecast
Issued by NWS Twin Cities, MN

Home | Current Version | Previous Version | Graphics & Text | Print | Product List | Glossary On
Versions: 1 2 3 4 5 6 7 8 9 10 11 12 13 14 15 16 17 18 19 20 21 22 23 24 25 26
000
FTUS43 KMPX 130500
TAFMSP
TAF
KMSP 130521Z 1306/1412 VRB03KT P6SM SKC
     FM131400 19004KT P6SM SKC
     FM131700 19010G18KT P6SM FEW200
     FM140000 17009KT P6SM SCT200=

USA.gov is the U.S. government's official web portal to all federal, state and local government web resources and services.